Weather History for New Haven, CT

Change the Weather History Date:

Tuesday, February 12, 2013

  Actual Average Record
Temperature  
Mean Temperature 40 °F -  
Max Temperature 45 °F 37 °F 24 °F (2014)
Min Temperature 34 °F 24 °F 8 °F (2014)
Degree Days  
Heating Degree Days 25    
Moisture  
Dew Point 29 °F    
Average Humidity 67    
Maximum Humidity 100    
Minimum Humidity 46    
Precipitation  
Precipitation 0.00 in - - ()
Sea Level Pressure  
Sea Level Pressure 29.79 in    
Wind  
Wind Speed 3 mph (West)    
Max Wind Speed 13 mph    
Max Gust Speed 24 mph    
Visibility 9 miles    
Events Fog    
Averages and records for this station are not official NWS values.
T = Trace of Precipitation, MM = Missing Value Source: NWS Daily Summary

Daily Weather History Graph

Daily Weather History Graph

Search for Another Location

Airport:

Trip Planner

Search our weather history database for the weather conditions in past years. The results will help you decide how hot, cold, wet, or windy it might be!

Date:

Astronomy

Feb. 12, 2013 Rise Set
Actual Time 6:49 AM EST 5:22 PM EST
Civil Twilight 6:21 AM EST 5:50 PM EST
Nautical Twilight 5:49 AM EST 6:23 PM EST
Astronomical Twilight 5:17 AM EST 6:55 PM EST
Moon 7:43 AM EST (2/12) 8:22 PM EST (2/12)
Length of Visible Light 11h 29m
Length of Day
10h 32m
Waxing Crescent, 7% of the Moon is Illuminated
Feb 12
Waxing Crescent
Feb 17
First Quarter
Feb 25
Full
Mar 4
Last Quarter
Mar 11
New

Hourly Weather History & Observations

Time (EST) Temp. Windchill Dew Point Humidity Pressure Visibility Wind Dir Wind Speed Gust Speed Precip Events Conditions
12:03 AM 35.6 °F - 35.6 °F 100% 29.69 in 0.5 mi Calm Calm - N/A Fog Fog
12:10 AM 35.6 °F - 35.6 °F 100% 29.69 in 1.0 mi Calm Calm - N/A   Overcast
12:20 AM 35.6 °F - 35.6 °F 100% 29.68 in 3.0 mi Calm Calm - N/A   Overcast
12:51 AM 37.4 °F - 35.6 °F 93% 29.68 in 4.0 mi Calm Calm - N/A   Mostly Cloudy
12:53 AM 37.0 °F - 36.0 °F 96% 29.69 in 4.0 mi Calm Calm - N/A   Mostly Cloudy
1:53 AM 39.0 °F 36.8 °F 36.0 °F 89% 29.70 in 10.0 mi Variable 3.5 mph - N/A   Mostly Cloudy
2:53 AM 37.9 °F - 34.0 °F 86% 29.70 in 10.0 mi Calm Calm - N/A   Overcast
3:53 AM 39.9 °F - 35.1 °F 83% 29.72 in 10.0 mi Calm Calm - N/A   Overcast
4:53 AM 39.0 °F - 34.0 °F 82% 29.74 in 10.0 mi Calm Calm - N/A   Overcast
5:53 AM 39.9 °F 35.8 °F 30.9 °F 70% 29.75 in 10.0 mi West 5.8 mph - N/A   Overcast
6:53 AM 41.0 °F 35.8 °F 28.0 °F 60% 29.75 in 10.0 mi NW 8.1 mph - N/A   Mostly Cloudy
7:53 AM 41.0 °F 37.1 °F 27.0 °F 57% 29.78 in 10.0 mi West 5.8 mph - N/A   Overcast
8:53 AM 41.0 °F 37.1 °F 28.9 °F 62% 29.80 in 10.0 mi SW 5.8 mph - N/A   Overcast
9:53 AM 39.9 °F 33.9 °F 28.9 °F 65% 29.81 in 10.0 mi SW 9.2 mph 16.1 mph N/A   Partly Cloudy
10:53 AM 44.1 °F 38.6 °F 26.1 °F 49% 29.81 in 10.0 mi WNW 10.4 mph 24.2 mph N/A   Partly Cloudy
11:53 AM 45.0 °F 40.6 °F 25.0 °F 46% 29.80 in 10.0 mi WNW 8.1 mph 23.0 mph N/A   Scattered Clouds
12:53 PM 45.0 °F 39.7 °F 25.0 °F 46% 29.81 in 10.0 mi West 10.4 mph 20.7 mph N/A   Scattered Clouds
1:53 PM 45.0 °F 39.3 °F 25.0 °F 46% 29.82 in 10.0 mi West 11.5 mph 19.6 mph N/A   Scattered Clouds
2:53 PM 44.1 °F 37.7 °F 25.0 °F 47% 29.83 in 10.0 mi West 12.7 mph 20.7 mph N/A   Scattered Clouds
3:53 PM 44.1 °F 39.0 °F 25.0 °F 47% 29.83 in 10.0 mi WNW 9.2 mph 20.7 mph N/A   Scattered Clouds
4:53 PM 43.0 °F 37.7 °F 25.0 °F 49% 29.81 in 10.0 mi WNW 9.2 mph 18.4 mph N/A   Scattered Clouds
5:53 PM 41.0 °F 39.0 °F 26.1 °F 55% 29.86 in 10.0 mi West 3.5 mph - N/A   Clear
6:53 PM 39.9 °F 34.5 °F 26.1 °F 58% 29.94 in 10.0 mi WNW 8.1 mph 24.2 mph N/A   Scattered Clouds
7:53 PM 39.9 °F 32.9 °F 25.0 °F 55% 29.93 in 10.0 mi WNW 11.5 mph - N/A   Scattered Clouds
8:53 PM 37.9 °F - 25.0 °F 60% 29.92 in 10.0 mi Calm Calm - N/A   Scattered Clouds
9:53 PM 37.0 °F - 24.1 °F 59% 29.89 in 10.0 mi Calm Calm - N/A   Clear
10:53 PM 36.0 °F - 23.0 °F 59% 29.88 in 10.0 mi Calm Calm - N/A   Clear
11:53 PM 34.0 °F - 24.1 °F 67% 29.90 in 10.0 mi Calm Calm - N/A   Mostly Cloudy